This demonstration page uses our WeatherBlox Daily Observations layout. Learn more.

Left ArrowRight Arrow

Hourly Observations for May 9, 2021

Temp ( °F °C ) Dew Point ( °F °C ) Humidity (%) Winds ( mph kmh ) Pressure ( in mb ) Visibility ( mi km ) Precip ( " mm )
12:53 am 00:53 Cloudy 53 11.7 39 3.9 59 59 ENE 6 9 30.05 1018 10 16.0934 0.001 0.001
1:53 am 01:53 Cloudy with Light Rain 49 9.4 43 6.1 80 80 ENE 6 9 30.06 1018 10 16.0934 0.02 0.508
2:53 am 02:53 Cloudy 48 8.9 43 6.1 83 83 E 9 15 30.01 1016 10 16.0934 0.001 0.001
3:53 am 03:53 Cloudy with Light Rain 49 9.4 43 6.1 80 80 E 10 17 29.98 1015 10 16.0934 0.001 0.001
4:53 am 04:53 Cloudy 48 8.9 42 5.6 80 80 E 13 20 29.95 1014 10 16.0934 0.001 0.001
5:53 am 05:53 Cloudy 48 8.9 41 5 77 77 E 13 20 29.88 1012 10 16.0934 0.001 0.001
6:53 am 06:53 Cloudy 49 9.4 40 4.4 71 71 E 10 17 29.87 1012 10 16.0934 N/A
7:53 am 07:53 Cloudy 50 10 39 3.9 66 66 E 9 15 29.83 1010 10 16.0934 N/A
8:53 am 08:53 Cloudy 50 10 40 4.4 68 68 E 12 19 29.78 1008 10 16.0934 N/A
9:53 am 09:53 Cloudy with Thunderstorms 50 10 42 5.6 74 74 NE 8 13 29.75 1008 6 9.65604 0.03 0.762
10:30 am 10:30 Cloudy with Heavy Thunderstorms 47 8.3 44 6.7 90 90 ESE 8 13 29.75 1008 2 3.21868 0.15 3.81
10:44 am 10:44 Cloudy with Heavy Thunderstorms 47 8.3 44 6.7 90 90 ESE 6 9 29.75 1008 1.5 2.41401 0.25 6.35
10:53 am 10:53 Cloudy with Heavy Rain 47 8.3 44 6.7 90 90 E 7 11 29.73 1007 1.5 2.41401 0.32 8.128
11:03 am 11:03 Cloudy with Heavy Rain 47 8.3 45 7.2 93 93 E 9 15 29.73 1007 1.75 2.816345 0.07 1.778
11:07 am 11:07 Cloudy with Rain 47 8.3 45 7.2 93 93 E 7 11 29.73 1007 2.5 4.02335 0.07 1.778
11:12 am 11:12 Cloudy with Rain 47 8.3 45 7.2 93 93 E 8 13 29.73 1007 3 4.82802 0.08 2.032
11:37 am 11:37 Cloudy with Rain 47 8.3 46 7.8 97 97 E 6 9 29.71 1006 1.75 2.816345 0.14 3.556
11:53 am 11:53 Cloudy with Rain 48 8.9 47 8.3 96 96 E 6 9 29.69 1006 2 3.21868 0.21 5.334
12:04 pm 12:04 Cloudy with Rain 48 8.9 47 8.3 96 96 N N/A 29.69 1005 3 4.82802 0.03 0.762
12:07 pm 12:07 Cloudy with Rain 49 9.4 47 8.3 93 93 ESE 3 6 29.69 1005 2.5 4.02335 0.04 1.016
12:15 pm 12:15 Cloudy with Light Rain 49 9.4 48 8.9 97 97 VRB 7 11 29.68 1005 4 6.43736 0.05 1.27
12:51 pm 12:51 Cloudy with Light Rain 50 10 48 9 94 94 E 7 11 29.61 1003 8 12.87472 0.05 1.27
12:53 pm 12:53 Cloudy with Light Rain 50 10 49 9.4 96 96 VRB 6 9 29.6 1003 8 12.87472 0.05 1.27
1:00 pm 13:00 Cloudy with Light Rain 51 10.6 50 10 96 96 E 7 11 29.6 1002 10 16.0934 0.001 0.001
1:07 pm 13:07 Cloudy 51 10.6 50 10 96 96 E 6 9 29.62 1003 10 16.0934 0.001 0.001
1:26 pm 13:26 Cloudy 53 11.7 52 11.1 96 96 NW 6 9 29.64 1004 10 16.0934 0.001 0.001
1:44 pm 13:44 Cloudy 54 12.2 52 11.1 93 93 N N/A 29.64 1004 10 16.0934 0.001 0.001
1:53 pm 13:53 Cloudy 54 12.2 53 11.7 97 97 N N/A 29.64 1004 9 14.48406 0.001 0.001
2:01 pm 14:01 Cloudy 54 12.2 53 11.7 97 97 N N/A 29.63 1003 9 14.48406 N/A
2:24 pm 14:24 Cloudy with Light Rain 56 13.3 55 12.8 97 97 N N/A 29.61 1003 8 12.87472 0.001 0.001
2:53 pm 14:53 Cloudy 65 18.3 61 16.1 87 87 SSW 9 15 29.59 1002 10 16.0934 0.01 0.254
3:34 pm 15:34 Cloudy with Light Rain 64 17.8 60 15.6 87 87 WNW 21 33 29.62 1003 1.5 2.41401 0.09 2.286
3:37 pm 15:37 Cloudy with Heavy Rain 62 16.7 59 15 90 90 WNW 14 22 29.62 1003 0.75 1.207005 0.14 3.556
3:44 pm 15:44 Cloudy with Rain 61 16.1 59 15 93 93 W 22 35 29.62 1003 1 1.60934 0.18 4.572
3:49 pm 15:49 Cloudy with Light Rain 61 16 57 14 88 88 W 13 20 29.63 1004 3 4.82802 0.18 4.572
3:53 pm 15:53 Cloudy with Light Rain 61 16.1 58 14.4 90 90 W 13 20 29.64 1004 8 12.87472 0.18 4.572
4:19 pm 16:19 Cloudy with Light Rain 56 13.3 54 12.2 93 93 NW 13 20 29.67 1005 4 6.43736 0.04 1.016
6:53 pm 18:53 Cloudy 45 7.2 41 5 86 86 N 14 22 29.86 1011 10 16.0934 N/A
7:21 pm 19:21 Cloudy 45 7.2 40 4.4 83 83 N 10 17 29.9 1012 10 16.0934 N/A
7:41 pm 19:41 Cloudy 45 7.2 40 4.4 83 83 N 12 19 29.91 1013 10 16.0934 N/A
7:53 pm 19:53 Cloudy 45 7.2 40 4.4 83 83 N 10 17 29.91 1013 10 16.0934 N/A
8:11 pm 20:11 Cloudy 45 7.2 40 4.4 83 83 N 9 15 29.93 1013 10 16.0934 N/A
8:53 pm 20:53 Cloudy 45 7.2 40 4.4 83 83 N 10 17 29.96 1015 10 16.0934 N/A
9:02 pm 21:02 Cloudy 45 7.2 40 4.4 83 83 N 8 13 29.99 1015 10 16.0934 N/A
9:34 pm 21:34 Cloudy 45 7.2 40 4.4 83 83 N 10 17 30 1016 10 16.0934 N/A
9:53 pm 21:53 Cloudy 45 7.2 39 3.9 80 80 N 8 13 30 1016 10 16.0934 N/A
10:53 pm 22:53 Cloudy 45 7.2 39 3.9 80 80 NNE 9 15 30.02 1017 10 16.0934 N/A
11:53 pm 23:53 Cloudy 44 6.7 38 3.3 79 79 NNE 3 6 30.02 1017 10 16.0934 N/A

Powered by AerisWeather